カタログに戻る

STARLINK-34874

運用中通信VLEO
NORAD 65335·PAYLOAD·🇺🇸 United States

打ち上げ Aug 27, 2025 から Cape Canaveral Space Force Station

Loading…

次のパス (今後24時間)

TLE

最新Source: CelesTrak SupGP

元期: Sep 14, 2026, 22:52 UTC

1 65335C 25189N   26257.95326389  .00012298  00000+0  36350-3 0  2572
2 65335  53.1586  45.7388 0001228  82.4194 166.2823 15.34371086    15

AllMySatでSTARLINK-34874をリアルタイム追跡

Download on the App Store